[[{"header":{"parameterUnit":"m.s-1","parameterCategory":1,"la1":30.2991,"la2":30.254,"lo1":-89.0895,"lo2":-89.0444,"dy":0.0017,"dx":0.0017,"nx":28,"ny":28,"refTime":"2024-07-03T03:00:00:Z","depth":0,"parameterNumber":2,"parameterNumberName":"U-component_of_WINDS"},"data":[0,0,0,0,0,0,0,0,0,0,0,0,0,0,0,0,0,0,0,0,0,0,0,0,0,0,0,0,0,0,0,0,0,0,0,0,0,0,0,0,0,0,0,0,0,0,0,0,0,0,0,0,0,0,0,0,0,0,-0.9733,-0.9732,0,-0.9679,-0.9678,-0.9677,-0.9684,-0.9684,-0.9685,-0.9686,-0.9629,-0.9627,-0.9625,0,0,0,0,0,0,0,0,0,0,0,0,0,-0.984,-0.9838,-0.9733,-0.9732,-0.9731,-0.9679,-0.9678,-0.9677,-0.9683,-0.9684,-0.9685,-0.9686,-0.963,-0.9627,-0.9624,0,0,0,0,0,0,0,0,0,0,0,0,0,-0.979,-0.9837,-0.9733,-0.9728,-0.9727,-0.9679,-0.9678,-0.9677,-0.9683,-0.9684,-0.9686,-0.9687,-0.9631,-0.9627,-0.9624,-0.9576,0,0,-0.9613,-0.9612,0,0,0,0,0,0,0,0,-0.9793,-0.9786,-0.973,-0.9728,-0.9727,-0.9689,-0.9695,-0.9643,-0.9683,-0.97,-0.9686,-0.9688,-0.9648,-0.9643,-0.963,-0.9574,-0.9571,-0.9613,-0.9611,-0.9609,-0.9608,0,0,0,0,0,0,0,-0.9797,-0.9789,-0.9711,-0.9729,-0.9727,-0.9728,-0.9723,-0.9685,-0.9667,-0.9698,-0.9699,-0.9692,-0.9648,-0.9633,-0.9629,-0.957,-0.9613,-0.961,-0.9608,-0.9606,-0.9472,-0.947,0,0,0,0,0,0,-0.9801,-0.9792,-0.9713,-0.971,-0.9764,-0.9725,-0.9719,-0.97,-0.9668,-0.9664,-0.9691,-0.9693,-0.9639,-0.9633,-0.9627,-0.9568,-0.9609,-0.9606,-0.9604,-0.9473,-0.9471,-0.947,0,0,0,0,0,0,-0.9804,-0.9794,-0.9715,-0.9751,-0.9741,-0.9722,-0.9701,-0.9698,-0.9684,-0.9662,-0.9659,-0.968,-0.964,-0.9632,-0.9589,-0.9567,-0.9605,-0.9601,-0.9475,-0.9473,-0.9471,-0.9452,0,0,0,0,0,0,-0.9807,-0.9795,-0.9777,-0.975,-0.9739,-0.9679,-0.9699,-0.9696,-0.9678,-0.968,-0.9651,-0.9647,-0.964,-0.9594,-0.9585,-0.9562,-0.9599,-0.9477,-0.9474,-0.9471,-0.9454,-0.9449,-0.9445,0,0,0,0,0,-0.981,-0.9774,-0.9776,-0.9767,-0.9716,-0.9677,-0.9671,-0.9663,-0.9677,-0.9658,-0.9644,-0.9648,-0.9571,-0.959,-0.958,-0.9556,-0.9478,-0.9475,-0.9472,-0.9456,-0.945,-0.9445,0,0,0,0,0,0,-0.9798,-0.977,-0.9773,-0.9726,-0.9704,-0.9678,-0.9655,-0.9657,-0.963,-0.9633,-0.9624,-0.9618,-0.9574,-0.9561,-0.9582,-0.9508,-0.9526,-0.9521,-0.9518,-0.9512,-0.9507,-0.9511,-0.9596,0,0,0,0,0,-0.979,-0.9761,-0.9738,-0.97,-0.9689,-0.9674,-0.9656,-0.9653,-0.9629,-0.962,-0.9603,-0.9579,-0.955,-0.953,-0.9502,-0.9453,-0.9446,-0.9431,-0.9426,-0.9423,-0.9418,-0.939,-0.9383,-0.9459,-0.9459,-0.9459,0,0,-0.9773,-0.9754,-0.9736,-0.9697,-0.9679,-0.9649,-0.9666,-0.9633,-0.9611,-0.9615,-0.9573,-0.956,-0.9533,-0.9487,-0.9466,-0.9474,-0.9396,-0.9418,-0.9416,-0.9413,-0.9386,-0.9379,-0.9373,-0.9457,-0.9457,-0.9457,0,0,-0.9726,-0.971,-0.9675,-0.9657,-0.9631,-0.9621,-0.9613,-0.9587,-0.9578,-0.9536,-0.9539,-0.9512,-0.9461,-0.9442,-0.9425,-0.9371,-0.9374,-0.9362,-0.9337,-0.931,-0.9304,-0.9299,-0.9279,-0.9272,-0.9358,-0.9358,-0.9358,0,-0.9708,-0.9663,-0.9657,-0.9624,-0.9606,-0.9609,-0.9574,-0.9557,-0.9522,-0.9509,-0.952,-0.9456,-0.9438,-0.9387,-0.9374,-0.9361,-0.9351,-0.9365,-0.9306,-0.9301,-0.9295,-0.9276,-0.9269,-0.9356,-0.9356,-0.9357,-0.9357,0,-0.9642,-0.9611,-0.9586,-0.9553,-0.9533,-0.9499,-0.9487,-0.9467,-0.9465,-0.9454,-0.9411,-0.939,-0.9357,-0.9345,-0.9343,-0.9293,-0.93,-0.9308,-0.9326,-0.9287,-0.9269,-0.9262,-0.9354,-0.9355,-0.9355,-0.9356,0,0,-0.9586,-0.955,-0.9541,-0.9525,-0.9496,-0.9472,-0.9438,-0.9406,-0.9389,-0.9365,-0.9335,-0.9292,-0.93,-0.9281,-0.9277,-0.9254,-0.9211,-0.9265,-0.9264,-0.9255,-0.9155,-0.9148,-0.914,-0.9214,-0.9212,-0.9211,-0.9157,0,-0.9536,-0.9476,-0.9469,-0.9416,-0.9387,-0.9389,-0.9359,-0.9338,-0.9327,-0.93,-0.9288,-0.9257,-0.927,-0.9259,-0.9236,-0.9222,-0.9191,-0.9225,-0.9186,-0.9184,-0.9191,-0.9131,-0.9124,-0.9074,-0.915,-0.9149,-0.9148,0,-0.9469,-0.9444,-0.9387,-0.9362,-0.9349,-0.9323,-0.9293,-0.9268,-0.9243,-0.9237,-0.9216,-0.9215,-0.9179,-0.9199,-0.915,-0.9173,-0.9157,-0.9147,-0.9145,-0.914,-0.9163,-0.9124,-0.9058,-0.905,-0.9137,-0.9138,-0.9139,0,-0.9433,-0.9384,-0.9344,-0.9331,-0.9301,-0.9282,-0.9268,-0.9245,-0.9227,-0.92,-0.9188,-0.9158,-0.9141,-0.9118,-0.9108,-0.9124,-0.9059,-0.9078,-0.9052,-0.9052,-0.9037,-0.9038,-0.8967,-0.9028,-0.9028,-0.9028,-0.9028,0,-0.9377,-0.9343,-0.9328,-0.9303,-0.9264,-0.9256,-0.9218,-0.9205,-0.9184,-0.9157,-0.9157,-0.9131,-0.912,-0.9092,-0.9084,-0.9044,-0.9037,-0.903,-0.9028,-0.9029,-0.903,-0.9018,-0.9021,-0.9026,-0.9026,-0.9027,-0.9027,0,-0.933,-0.9319,-0.9275,-0.925,-0.9243,-0.9215,-0.9193,-0.9169,-0.9158,-0.9123,-0.9114,-0.9098,-0.9065,-0.9053,-0.9013,-0.9008,-0.8961,-0.8962,-0.8969,-0.8968,-0.8942,-0.8944,-0.886,-0.8848,-0.8917,-0.8917,-0.8916,0,-0.9295,-0.9268,-0.924,-0.9222,-0.9208,-0.9178,-0.9159,-0.9151,-0.9131,-0.9101,-0.908,-0.9047,-0.9021,-0.8968,-0.8952,-0.8921,-0.8921,-0.8894,-0.8917,-0.8919,-0.892,-0.8921,-0.8918,-0.8889,-0.8889,-0.8888,-0.8888,0,-0.9234,-0.9229,-0.9202,-0.9172,-0.915,-0.9126,-0.9103,-0.9088,-0.9076,-0.9053,-0.902,-0.8999,-0.8958,-0.8926,-0.8894,-0.888,-0.8881,-0.8881,-0.8873,-0.8873,-0.8878,-0.8874,-0.8956,-0.8882,-0.8883,-0.8883,-0.8884,-0.8884,-0.9191,-0.9167,-0.9144,-0.9113,-0.9095,-0.9073,-0.9049,-0.9036,-0.9008,-0.8974,-0.8971,-0.8934,-0.891,-0.8868,-0.8852,-0.8823,-0.8831,-0.882,-0.8817,-0.8814,-0.8811,-0.8883,-0.8818,-0.8818,-0.8818,-0.8818,-0.8818,0,-0.9129,-0.9114,-0.9086,-0.9054,-0.903,-0.9034,-0.9009,-0.8988,-0.8956,-0.8934,-0.8908,-0.8869,-0.8837,-0.8819,-0.8787,-0.8767,-0.8767,-0.8759,-0.876,-0.8756,-0.8807,-0.8817,-0.876,-0.876,-0.876,-0.876,-0.876,-0.876,-0.9094,-0.9054,-0.9047,-0.8998,-0.8983,-0.8947,-0.8932,-0.8912,-0.8894,-0.8851,-0.8825,-0.8813,-0.8792,-0.8759,-0.8729,-0.8725,-0.8713,-0.8704,-0.87,-0.8747,-0.8753,-0.8759,-0.8768,-0.8701,-0.8701,-0.8652,-0.8651,-0.8651]},{"header":{"parameterUnit":"m.s-1","parameterCategory":1,"la1":30.2991,"la2":30.254,"lo1":-89.0895,"lo2":-89.0444,"dy":0.0017,"dx":0.0017,"nx":28,"ny":28,"refTime":"2024-07-03T03:00:00:Z","depth":0,"parameterNumber":3,"parameterNumberName":"V-component_of_WINDS"},"data":[0,0,0,0,0,0,0,0,0,0,0,0,0,0,0,0,0,0,0,0,0,0,0,0,0,0,0,0,0,0,0,0,0,0,0,0,0,0,0,0,0,0,0,0,0,0,0,0,0,0,0,0,0,0,0,0,0,0,3.2978,3.2979,0,3.3034,3.3035,3.3036,3.3031,3.303,3.3029,3.3029,3.3083,3.3085,3.3087,0,0,0,0,0,0,0,0,0,0,0,0,0,3.2866,3.2868,3.2978,3.2979,3.298,3.3034,3.3035,3.3036,3.3031,3.303,3.3029,3.3028,3.3082,3.3085,3.3087,0,0,0,0,0,0,0,0,0,0,0,0,0,3.2917,3.2868,3.2978,3.2984,3.2985,3.3034,3.3035,3.3036,3.3031,3.303,3.3029,3.3028,3.3081,3.3084,3.3088,3.3133,0,0,3.3098,3.3099,0,0,0,0,0,0,0,0,3.2914,3.2921,3.2983,3.2984,3.2985,3.3025,3.3015,3.3068,3.3032,3.3014,3.3029,3.3027,3.3064,3.3069,3.3082,3.3136,3.3138,3.3098,3.31,3.3102,3.3103,0,0,0,0,0,0,0,3.2911,3.2919,3.3,3.2984,3.2985,3.2983,3.2989,3.3025,3.3045,3.3015,3.3015,3.3022,3.3065,3.3079,3.3083,3.3139,3.3098,3.3101,3.3103,3.3104,3.3234,3.3236,0,0,0,0,0,0,3.2906,3.2916,3.2999,3.3002,3.2946,3.2986,3.2993,3.3013,3.3045,3.3049,3.3023,3.3022,3.3074,3.3079,3.3085,3.3142,3.3102,3.3105,3.3107,3.3233,3.3235,3.3236,0,0,0,0,0,0,3.2904,3.2914,3.2996,3.2959,3.297,3.299,3.3012,3.3015,3.3029,3.3051,3.3054,3.3034,3.3073,3.308,3.3122,3.3144,3.3106,3.3109,3.3231,3.3233,3.3235,3.3255,0,0,0,0,0,0,3.2901,3.2913,3.2931,3.296,3.2972,3.3033,3.3014,3.3017,3.3035,3.3034,3.3062,3.3065,3.3073,3.3117,3.3125,3.3148,3.3112,3.3229,3.3232,3.3235,3.3253,3.3258,3.3262,0,0,0,0,0,3.2897,3.2933,3.2932,3.2942,3.2995,3.3034,3.3041,3.305,3.3037,3.3055,3.3069,3.3064,3.314,3.3121,3.313,3.3154,3.3228,3.3231,3.3235,3.325,3.3257,3.3262,0,0,0,0,0,0,3.2905,3.2937,3.2936,3.2983,3.3006,3.3033,3.3057,3.3056,3.3082,3.308,3.3088,3.3094,3.3136,3.3149,3.3128,3.3201,3.3182,3.3187,3.3191,3.3197,3.3202,3.3198,3.3115,0,0,0,0,0,3.2913,3.2943,3.2969,3.3008,3.302,3.3036,3.3054,3.3058,3.3082,3.3092,3.3109,3.3131,3.316,3.3179,3.3207,3.3254,3.3261,3.3275,3.328,3.3283,3.3288,3.3315,3.3323,3.3247,3.3247,3.3247,0,0,3.2928,3.2949,3.2968,3.301,3.3029,3.306,3.3044,3.3077,3.31,3.3096,3.3138,3.3151,3.3176,3.3222,3.3242,3.3233,3.331,3.3288,3.329,3.3293,3.332,3.3327,3.3333,3.3249,3.3249,3.3248,0,0,3.2973,3.2991,3.3027,3.3046,3.3075,3.3086,3.3094,3.3122,3.3131,3.3173,3.3171,3.3198,3.3247,3.3266,3.3282,3.3335,3.3332,3.3344,3.3369,3.3395,3.3401,3.3406,3.3427,3.3434,3.3348,3.3348,3.3348,0,3.2988,3.3036,3.3045,3.3079,3.3098,3.3097,3.3133,3.3151,3.3186,3.3199,3.3189,3.3252,3.3269,3.332,3.3333,3.3345,3.3355,3.3341,3.34,3.3405,3.341,3.343,3.3437,3.3349,3.3349,3.3349,3.3349,0,3.3054,3.3087,3.3112,3.3149,3.317,3.3205,3.3219,3.3239,3.3242,3.3254,3.3296,3.3317,3.335,3.3362,3.3364,3.3413,3.3407,3.3398,3.338,3.3419,3.3437,3.3444,3.3351,3.3351,3.335,3.335,0,0,3.3106,3.3148,3.3157,3.3174,3.3206,3.3232,3.3266,3.3299,3.3317,3.3342,3.3372,3.3414,3.3407,3.3425,3.3429,3.3452,3.3495,3.3441,3.3442,3.3452,3.3551,3.3559,3.3567,3.3492,3.3494,3.3495,3.3549,0,3.3155,3.3218,3.3228,3.3283,3.3314,3.3314,3.3344,3.3367,3.3378,3.3406,3.3418,3.3449,3.3436,3.3448,3.347,3.3485,3.3515,3.3481,3.3521,3.3522,3.3516,3.3576,3.3584,3.3635,3.3557,3.3558,3.3559,0,3.3221,3.325,3.3308,3.3338,3.3351,3.3378,3.341,3.3436,3.3462,3.3469,3.349,3.3492,3.3527,3.3507,3.3557,3.3533,3.355,3.3559,3.3561,3.3566,3.3544,3.3585,3.3651,3.3659,3.357,3.3569,3.3568,0,3.3255,3.3308,3.335,3.3365,3.3399,3.3419,3.3434,3.3458,3.3478,3.3505,3.3518,3.3548,3.3565,3.3589,3.3599,3.3583,3.3648,3.3628,3.3656,3.3656,3.3671,3.367,3.3742,3.3679,3.3679,3.3678,3.3678,0,3.331,3.3347,3.3367,3.3393,3.3434,3.3444,3.3483,3.3498,3.352,3.3548,3.3549,3.3575,3.3586,3.3615,3.3623,3.3664,3.367,3.3677,3.3679,3.3679,3.3678,3.3691,3.3688,3.368,3.368,3.368,3.3679,0,3.3356,3.337,3.3417,3.3446,3.3455,3.3483,3.3508,3.3533,3.3545,3.3582,3.3591,3.3609,3.3643,3.3655,3.3695,3.37,3.3748,3.3746,3.374,3.3741,3.3769,3.3766,3.3853,3.3865,3.3792,3.3793,3.3793,0,3.3391,3.3419,3.3452,3.3472,3.3488,3.352,3.3541,3.3551,3.3572,3.3604,3.3626,3.366,3.3688,3.3741,3.3758,3.3789,3.3789,3.3817,3.3793,3.3792,3.3791,3.379,3.3794,3.3822,3.3822,3.3823,3.3823,0,3.3452,3.3458,3.3488,3.3522,3.3547,3.3573,3.3598,3.3614,3.3628,3.3652,3.3688,3.3709,3.3751,3.3785,3.3817,3.3832,3.3831,3.383,3.3839,3.3839,3.3835,3.3839,3.3754,3.3829,3.3828,3.3828,3.3827,3.3827,3.3495,3.352,3.3548,3.3582,3.3602,3.3626,3.3652,3.3668,3.3698,3.3734,3.3738,3.3776,3.3801,3.3844,3.3861,3.389,3.3883,3.3894,3.3897,3.3901,3.3904,3.3829,3.3896,3.3896,3.3896,3.3895,3.3895,0,3.3557,3.3575,3.3606,3.3643,3.3669,3.3666,3.3694,3.3717,3.3751,3.3775,3.3803,3.3844,3.3877,3.3896,3.3929,3.3949,3.3949,3.3958,3.3957,3.3961,3.3908,3.3898,3.3957,3.3957,3.3957,3.3957,3.3957,3.3957,3.3593,3.3637,3.3647,3.3701,3.3718,3.3757,3.3773,3.3795,3.3815,3.3861,3.3889,3.3902,3.3924,3.3959,3.3989,3.3994,3.4007,3.4016,3.402,3.397,3.3964,3.3958,3.3949,3.4018,3.4018,3.4071,3.4071,3.4072]}]]